Tracking 32579 objects as of 15-Dec-2025
HD Live streaming from Space Station
objects crossing your sky now

STARLINK-35487

Track STARLINK-35487 now!
10-day predictions
STARLINK-35487 is classified as:


NORAD ID: 66262
Int'l Code: 2025-245AE
Perigee: 453.3 km
Apogee: 455.4 km
Inclination: 53.2 °
Period: 93.5 minutes
Semi major axis: 6825 km
RCS: Unknown
Launch date: October 29, 2025
Source: United States (US)
Launch site: AIR FORCE EASTERN TEST RANGE (AFETR)
Your satellite tracking list
Your tracking list is empty




NASA's NSSDC Master Catalog

Two Line Element Set (TLE):
1 66262U 25245AE  25348.24203293  .00043235  00000-0  10849-2 0  9998
2 66262  53.1612 321.5228 0001525  80.1831 279.9346 15.39615847  8118
Source of the keplerian elements: AFSPC